SCP
0 0 -0 -0 -1 -1 -0 -0 -0 -0 -0 -0 -0 -0 -0 -0 -0 -0 -0 -0 -0 -0 -0 -0 -0 0 0 0 0 0 0 -0
-0 0 -0 -1 -1 -0 -0 -0 -0 -0 -0 -0 -0 -0 -0 -0 -0 -0 -0 -0 -0 -0 -0 -0 0 0 0 0 0 0 0 -0
-0 0 -0 -0 -0 -0 -0 -0 -0 -0 -0 -0 -0 -0 -0 -0 -0 -0 -0 -0 -0 -0 -0 0 0 0 0 0 0 0 -0 -0
-0 0 0 0 -0 -0 -0 -0 -0 -0 -0 -0 -0 -0 -0 0 -0 -0 -0 -0 -0 -0 0 0 -0 -0 -0 -0 -0 -0 -0 -0
-0 -0 -0 -0 -0 -0 -0 -0 -0 -0 -0 -0 -0 -0 -0 -0 -0 -0 -0 0 0 0 0 0 -0 -0 -0 -0 -0 -0 -0 -0
-0 -0 -0 -0 -0 -0 0 -0 -0 -0 -0 -0 -0 -0 -0 -0 -0 -0 -0 -0 -0 0 0 0 -0 -0 -0 -0 -0 -0 0 0
-0 -0 -0 -0 -0 -0 -0 -0 -0 -0 0 0 0 -0 0 -0 -0 -0 -0 -0 -0 -0 -0 -0 -0 -0 -0 -0 -0 0 -0 0
-0 -0 -0 -0 -0 -0 0 0 0 0 0 0 0 0 0 0 -0 -0 -0 -0 -0 -0 -0 -0 -0 -0 -0 -0 0 0 0 0
-0 -0 -0 0 -0 0 0 0 0 0 0 0 0 0 0 0 -0 -0 -0 -0 -0 -0 0 0 0 0 -0 -0 0 0 0 0
0 0 -0 0 0 0 0 0 0 0 0 0 0 0 0 0 -0 -0 -0 -0 -0 -0 0 0 0 0 0 0 0 0 0 0
0 0 0 0 0 0 0 0 0 0 0 0 0 0 0 0 0 -0 -0 -0 -0 -0 -0 0 0 0 0 0 0 0 0 0
0 0 0 0 0 0 0 0 0 0 0 0 0 0 0 0 0 0 -0 -0 0 0 0 0 -0 0 0 0 0 0 0 0
0 0 0 0 0 0 0 0 0 0 0 -0 -0 -0 0 0 0 0 0 0 0 0 0 0 0 0 0 0 0 0 0 0
0 0 0 0 0 0 0 0 0 0 -0 -0 -0 -0 -0 0 0 0 0 0 0 0 0 0 0 0 0 0 0 0 0 0
0 0 0 0 0 0 0 0 0 0 0 0 -0 -0 -0 0 0 0 0 0 0 0 0 0 0 0 0 0 0 0 0 0
0 0 0 0 0 0 0 0 0 0 0 -0 0 0 0 0 0 0 0 0 0 0 0 0 0 0 0 0 0 0 0 0
0 0 0 0 0 0 0 0 0 0 0 0 0 0 0 0 0 0 0 0 0 0 0 0 0 0 0 0 0 0 0 0
0 0 0 0 0 0 0 0 0 0 0 0 0 0 0 0 0 0 0 0 0 0 0 0 0 0 0 0 0 0 0 0
0 0 0 0 0 0 0 0 0 0 0 0 0 0 0 0 0 0 0 0 0 0 0 0 0 0 0 0 0 0 0 0
Wind_Speed_500mb
58 58 58 56 54 49 42 35 30 32 36 37 37 38 36 35 33 33 30 27 24 23 27 29 32 34 32 31 30 29 24 22
57 55 54 54 55 50 42 34 29 33 35 36 38 38 37 35 36 35 32 27 23 23 30 34 35 32 28 26 22 19 18 17
53 53 51 53 55 51 44 36 29 34 35 39 38 38 36 35 34 34 31 25 24 25 31 33 34 29 22 17 14 15 15 12
50 50 50 53 54 49 44 38 32 34 36 38 36 36 36 33 32 31 26 28 27 26 32 34 32 25 20 15 8 9 9 9
48 48 49 53 56 53 47 39 33 33 36 35 34 34 35 32 29 30 31 31 30 28 31 33 29 23 18 13 7 9 9 9
49 49 49 53 55 53 48 42 36 34 36 35 34 32 31 29 28 30 32 34 32 31 29 31 27 21 19 14 12 7 7 11
54 53 52 53 55 55 51 46 41 37 41 39 36 33 30 28 28 30 34 35 33 30 27 27 27 23 19 17 15 11 11 15
46 52 51 52 56 57 55 51 45 40 43 41 38 35 32 30 31 32 35 35 34 31 29 27 27 24 21 20 19 17 14 18
48 45 48 51 54 57 55 52 48 44 44 45 41 38 36 33 32 31 33 35 35 32 31 29 27 25 24 22 21 21 22 23
50 45 43 48 50 52 52 53 50 47 45 47 44 41 39 37 33 31 31 32 33 33 31 30 29 27 28 28 29 28 27 28
50 44 40 44 43 46 47 48 51 47 44 45 45 41 39 37 36 34 32 31 32 31 31 30 30 32 32 34 35 35 34 33
48 46 42 44 41 40 43 42 42 43 42 43 45 43 40 38 37 36 34 34 31 28 29 30 31 35 38 38 38 38 38 41
52 49 47 45 38 32 33 37 38 40 40 40 42 45 42 39 38 38 39 34 32 30 28 28 30 30 36 42 42 41 42 45
53 54 50 46 41 21 27 30 28 35 42 42 44 45 46 42 39 42 43 42 42 42 36 36 35 37 37 45 47 49 45 56
39 42 50 46 40 34 23 33 39 37 28 28 38 41 43 45 45 47 48 50 49 47 47 47 47 43 38 44 47 54 58 57
30 32 45 50 47 47 36 35 43 43 33 40 36 36 41 45 47 47 48 50 55 59 59 53 53 50 47 44 49 54 55 61
29 33 40 49 53 54 51 43 37 42 47 42 46 46 47 49 52 53 55 56 59 67 68 69 67 56 50 47 48 46 47 58
23 24 37 45 50 53 52 47 46 45 45 49 52 50 52 52 55 53 53 54 56 58 61 68 76 77 55 45 31 33 22 30
26 27 26 34 39 41 44 42 40 42 41 40 40 42 49 48 52 51 53 53 46 45 48 54 63 67 66 73 58 60 72 76
Wind_Direction_500mb
175 174 174 177 176 175 173 170 169 167 162 163 164 164 162 156 152 147 143 141 138 145 147 137 135 127 121 121 116 108 100 99
173 174 174 177 177 176 174 172 169 167 164 163 161 161 158 155 151 147 143 139 136 139 144 142 140 134 129 121 125 110 106 103
172 173 175 177 178 177 175 174 173 170 165 162 162 160 159 156 154 150 150 149 147 142 147 150 148 147 143 130 120 110 101 104
174 172 174 175 178 178 178 177 176 174 170 169 167 165 165 163 158 160 158 158 152 148 152 159 161 159 152 149 152 129 103 114
175 175 176 177 179 180 180 180 179 178 176 176 174 172 169 168 164 161 160 160 155 153 156 167 171 172 171 181 189 160 134 130
178 180 180 182 183 184 185 184 184 183 181 180 179 179 178 179 177 171 166 165 164 161 166 170 186 188 190 205 197 190 172 159
182 183 186 186 188 188 191 192 190 189 186 185 184 183 184 183 182 180 176 174 174 174 180 183 196 207 208 212 215 227 192 176
179 184 189 192 194 196 197 196 197 195 192 189 188 187 186 186 185 183 184 184 184 188 193 201 204 212 218 220 230 236 217 205
181 186 189 195 198 201 203 204 204 201 198 196 194 193 193 192 192 190 191 193 194 200 204 213 222 221 229 232 233 233 233 237
189 187 192 195 201 205 207 210 211 209 205 201 200 199 200 200 199 198 199 202 204 209 213 223 235 235 232 235 236 235 239 244
198 196 199 200 204 209 209 214 215 214 210 207 207 207 208 208 208 207 208 210 212 216 221 231 240 249 244 236 234 238 240 238
208 207 206 210 206 214 215 216 217 217 215 213 213 214 216 217 218 218 218 218 219 224 233 238 244 246 250 245 238 240 245 246
223 218 215 216 207 217 224 222 222 221 219 219 219 221 224 225 225 225 223 225 225 233 243 246 245 253 253 251 247 245 253 250
227 225 222 220 208 198 222 213 225 228 226 225 224 224 229 232 235 236 235 238 239 236 242 245 249 256 261 250 249 252 254 255
231 224 224 225 211 205 213 212 210 219 219 230 228 233 236 237 240 244 244 242 244 247 249 248 248 248 259 254 258 260 258 250
221 213 214 219 218 213 217 221 220 231 228 226 235 239 237 234 235 240 241 244 248 251 253 256 253 249 250 249 252 261 258 250
212 206 213 218 217 222 225 234 234 237 251 256 252 251 246 239 241 246 255 256 257 257 258 254 254 253 253 255 256 259 268 265
194 198 205 215 219 224 231 232 239 242 249 253 249 249 249 252 251 254 257 258 258 263 263 271 268 261 261 265 281 275 294 278
177 177 187 204 214 221 222 220 223 235 243 242 239 250 261 255 261 264 267 271 275 272 274 264 262 260 254 253 280 282 274 265
Wind_Speed_850mb
58 58 58 56 54 49 42 35 30 32 36 37 37 38 36 35 33 33 30 27 24 23 27 29 32 34 32 31 30 29 24 22
57 55 54 54 55 50 42 34 29 33 35 36 38 38 37 35 36 35 32 27 23 23 30 34 35 32 28 26 22 19 18 17
53 53 51 53 55 51 44 36 29 34 35 39 38 38 36 35 34 34 31 25 24 25 31 33 34 29 22 17 14 15 15 12
50 50 50 53 54 49 44 38 32 34 36 38 36 36 36 33 32 31 26 28 27 26 32 34 32 25 20 15 8 9 9 9
48 48 49 53 56 53 47 39 33 33 36 35 34 34 35 32 29 30 31 31 30 28 31 33 29 23 18 13 7 9 9 9
49 49 49 53 55 53 48 42 36 34 36 35 34 32 31 29 28 30 32 34 32 31 29 31 27 21 19 14 12 7 7 11
54 53 52 53 55 55 51 46 41 37 41 39 36 33 30 28 28 30 34 35 33 30 27 27 27 23 19 17 15 11 11 15
46 52 51 52 56 57 55 51 45 40 43 41 38 35 32 30 31 32 35 35 34 31 29 27 27 24 21 20 19 17 14 18
48 45 48 51 54 57 55 52 48 44 44 45 41 38 36 33 32 31 33 35 35 32 31 29 27 25 24 22 21 21 22 23
50 45 43 48 50 52 52 53 50 47 45 47 44 41 39 37 33 31 31 32 33 33 31 30 29 27 28 28 29 28 27 28
50 44 40 44 43 46 47 48 51 47 44 45 45 41 39 37 36 34 32 31 32 31 31 30 30 32 32 34 35 35 34 33
48 46 42 44 41 40 43 42 42 43 42 43 45 43 40 38 37 36 34 34 31 28 29 30 31 35 38 38 38 38 38 41
52 49 47 45 38 32 33 37 38 40 40 40 42 45 42 39 38 38 39 34 32 30 28 28 30 30 36 42 42 41 42 45
53 54 50 46 41 21 27 30 28 35 42 42 44 45 46 42 39 42 43 42 42 42 36 36 35 37 37 45 47 49 45 56
39 42 50 46 40 34 23 33 39 37 28 28 38 41 43 45 45 47 48 50 49 47 47 47 47 43 38 44 47 54 58 57
30 32 45 50 47 47 36 35 43 43 33 40 36 36 41 45 47 47 48 50 55 59 59 53 53 50 47 44 49 54 55 61
29 33 40 49 53 54 51 43 37 42 47 42 46 46 47 49 52 53 55 56 59 67 68 69 67 56 50 47 48 46 47 58
23 24 37 45 50 53 52 47 46 45 45 49 52 50 52 52 55 53 53 54 56 58 61 68 76 77 55 45 31 33 22 30
26 27 26 34 39 41 44 42 40 42 41 40 40 42 49 48 52 51 53 53 46 45 48 54 63 67 66 73 58 60 72 76
Wind_Direction_850mb
175 174 174 177 176 175 173 170 169 167 162 163 164 164 162 156 152 147 143 141 138 145 147 137 135 127 121 121 116 108 100 99
173 174 174 177 177 176 174 172 169 167 164 163 161 161 158 155 151 147 143 139 136 139 144 142 140 134 129 121 125 110 106 103
172 173 175 177 178 177 175 174 173 170 165 162 162 160 159 156 154 150 150 149 147 142 147 150 148 147 143 130 120 110 101 104
174 172 174 175 178 178 178 177 176 174 170 169 167 165 165 163 158 160 158 158 152 148 152 159 161 159 152 149 152 129 103 114
175 175 176 177 179 180 180 180 179 178 176 176 174 172 169 168 164 161 160 160 155 153 156 167 171 172 171 181 189 160 134 130
178 180 180 182 183 184 185 184 184 183 181 180 179 179 178 179 177 171 166 165 164 161 166 170 186 188 190 205 197 190 172 159
182 183 186 186 188 188 191 192 190 189 186 185 184 183 184 183 182 180 176 174 174 174 180 183 196 207 208 212 215 227 192 176
179 184 189 192 194 196 197 196 197 195 192 189 188 187 186 186 185 183 184 184 184 188 193 201 204 212 218 220 230 236 217 205
181 186 189 195 198 201 203 204 204 201 198 196 194 193 193 192 192 190 191 193 194 200 204 213 222 221 229 232 233 233 233 237
189 187 192 195 201 205 207 210 211 209 205 201 200 199 200 200 199 198 199 202 204 209 213 223 235 235 232 235 236 235 239 244
198 196 199 200 204 209 209 214 215 214 210 207 207 207 208 208 208 207 208 210 212 216 221 231 240 249 244 236 234 238 240 238
208 207 206 210 206 214 215 216 217 217 215 213 213 214 216 217 218 218 218 218 219 224 233 238 244 246 250 245 238 240 245 246
223 218 215 216 207 217 224 222 222 221 219 219 219 221 224 225 225 225 223 225 225 233 243 246 245 253 253 251 247 245 253 250
227 225 222 220 208 198 222 213 225 228 226 225 224 224 229 232 235 236 235 238 239 236 242 245 249 256 261 250 249 252 254 255
231 224 224 225 211 205 213 212 210 219 219 230 228 233 236 237 240 244 244 242 244 247 249 248 248 248 259 254 258 260 258 250
221 213 214 219 218 213 217 221 220 231 228 226 235 239 237 234 235 240 241 244 248 251 253 256 253 249 250 249 252 261 258 250
212 206 213 218 217 222 225 234 234 237 251 256 252 251 246 239 241 246 255 256 257 257 258 254 254 253 253 255 256 259 268 265
194 198 205 215 219 224 231 232 239 242 249 253 249 249 249 252 251 254 257 258 258 263 263 271 268 261 261 265 281 275 294 278
177 177 187 204 214 221 222 220 223 235 243 242 239 250 261 255 261 264 267 271 275 272 274 264 262 260 254 253 280 282 274 265